Time,TemperatureF,DewpointF,PressureIn,WindDirection,WindDirectionDegrees,WindSpeedMPH,WindSpeedGustMPH,Humidity,HourlyPrecipIn,Conditions,Clouds,dailyrainin,SoftwareType,DateUTC
2013-02-11 00:02:00,35.0,29.0,-100.00,WNW,285,22.0,34.0,81,0.00,,,-99.99,,2013-02-11 06:02:00,
2013-02-11 00:11:00,34.0,28.0,-100.00,WNW,290,24.0,40.0,76,0.00,,,-99.99,,2013-02-11 06:11:00,
2013-02-11 00:21:00,34.0,27.0,-100.00,WNW,290,24.0,38.0,74,0.00,,,-99.99,,2013-02-11 06:21:00,
2013-02-11 00:32:00,34.0,27.0,-100.00,WNW,290,22.0,34.0,76,0.00,,,-99.99,,2013-02-11 06:32:00,
2013-02-11 00:42:00,33.0,27.0,-100.00,WNW,300,16.0,25.0,78,0.00,,,-99.99,,2013-02-11 06:42:00,
2013-02-11 00:51:00,33.0,27.0,-100.00,WNW,295,22.0,39.0,75,0.00,,,-99.99,,2013-02-11 06:51:00,
2013-02-11 01:01:00,33.0,27.0,-100.00,WNW,295,22.0,39.0,75,0.00,,,-99.99,,2013-02-11 07:01:00,
2013-02-11 01:11:00,33.0,27.0,-100.00,WNW,295,21.0,32.0,75,0.00,,,-99.99,,2013-02-11 07:11:00,
2013-02-11 01:21:00,33.0,26.0,-100.00,WNW,295,26.0,39.0,74,0.00,,,-99.99,,2013-02-11 07:21:00,
2013-02-11 01:32:00,33.0,25.0,-100.00,WNW,290,24.0,37.0,72,0.00,,,-99.99,,2013-02-11 07:32:00,
2013-02-11 01:41:00,33.0,25.0,-100.00,WNW,295,19.0,36.0,72,0.00,,,-99.99,,2013-02-11 07:41:00,
2013-02-11 01:52:00,33.0,24.0,-100.00,WNW,300,29.0,39.0,68,0.00,,,-99.99,,2013-02-11 07:52:00,
2013-02-11 02:01:00,33.0,24.0,-100.00,WNW,300,29.0,39.0,68,0.00,,,-99.99,,2013-02-11 08:01:00,
2013-02-11 02:11:00,33.0,25.0,-100.00,WNW,295,19.0,31.0,72,0.08,,,-99.99,,2013-02-11 08:11:00,
2013-02-11 02:21:00,33.0,25.0,-100.00,WNW,295,22.0,32.0,71,0.08,,,-99.99,,2013-02-11 08:21:00,
2013-02-11 02:31:00,33.0,25.0,-100.00,WNW,290,22.0,35.0,70,0.00,,,-99.99,,2013-02-11 08:31:00,
2013-02-11 02:42:00,33.0,24.0,-100.00,NW,305,24.0,32.0,70,0.00,,,-99.99,,2013-02-11 08:42:00,
2013-02-11 02:52:00,33.0,25.0,-100.00,WNW,300,19.0,30.0,70,0.00,,,-99.99,,2013-02-11 08:52:00,
2013-02-11 03:01:00,33.0,25.0,-100.00,WNW,300,19.0,30.0,70,0.00,,,-99.99,,2013-02-11 09:01:00,
2013-02-11 03:12:00,33.0,25.0,-100.00,WNW,295,22.0,31.0,71,0.11,,,-99.99,,2013-02-11 09:12:00,
2013-02-11 03:21:00,33.0,25.0,-100.00,WNW,295,19.0,33.0,71,0.00,,,-99.99,,2013-02-11 09:21:00,
2013-02-11 03:32:00,33.0,25.0,-100.00,WNW,290,22.0,34.0,71,0.00,,,-99.99,,2013-02-11 09:32:00,
2013-02-11 03:41:00,33.0,25.0,-100.00,WNW,290,24.0,36.0,72,0.00,,,-99.99,,2013-02-11 09:41:00,
2013-02-11 03:51:00,33.0,25.0,-100.00,WNW,285,28.0,38.0,71,0.10,,,-99.99,,2013-02-11 09:51:00,
2013-02-11 04:01:00,33.0,25.0,-100.00,WNW,285,28.0,38.0,71,0.10,,,-99.99,,2013-02-11 10:01:00,
2013-02-11 04:11:00,33.0,26.0,-100.00,WNW,300,17.0,32.0,74,0.00,,,-99.99,,2013-02-11 10:11:00,
2013-02-11 04:21:00,33.0,25.0,-100.00,WNW,300,18.0,40.0,73,0.00,,,-99.99,,2013-02-11 10:21:00,
2013-02-11 04:31:00,33.0,25.0,-100.00,WNW,300,21.0,34.0,73,0.00,,,-99.99,,2013-02-11 10:31:00,
2013-02-11 04:41:00,33.0,25.0,-100.00,WNW,290,24.0,37.0,73,0.00,,,-99.99,,2013-02-11 10:41:00,
2013-02-11 04:51:00,33.0,25.0,-100.00,WNW,295,22.0,32.0,73,0.00,,,-99.99,,2013-02-11 10:51:00,
2013-02-11 05:01:00,33.0,25.0,-100.00,WNW,295,22.0,32.0,73,0.00,,,-99.99,,2013-02-11 11:01:00,
2013-02-11 05:11:00,32.0,25.0,-100.00,NW,305,16.0,30.0,74,0.00,,,-99.99,,2013-02-11 11:11:00,
2013-02-11 05:22:00,32.0,25.0,-100.00,WNW,295,21.0,30.0,73,0.00,,,-99.99,,2013-02-11 11:22:00,
2013-02-11 05:32:00,32.0,25.0,-100.00,WNW,300,16.0,34.0,75,0.00,,,-99.99,,2013-02-11 11:32:00,
2013-02-11 05:42:00,32.0,25.0,-100.00,WNW,300,26.0,37.0,73,0.07,,,-99.99,,2013-02-11 11:42:00,
2013-02-11 05:52:00,32.0,25.0,-100.00,NW,315,18.0,32.0,75,0.00,,,-99.99,,2013-02-11 11:52:00,
2013-02-11 06:03:00,32.0,25.0,-100.00,NW,315,18.0,32.0,75,0.00,,,-99.99,,2013-02-11 12:03:00,
2013-02-11 06:12:00,32.0,24.0,-100.00,NW,315,26.0,39.0,72,0.07,,,-99.99,,2013-02-11 12:12:00,
2013-02-11 06:22:00,32.0,24.0,-100.00,NW,305,21.0,39.0,72,0.00,,,-99.99,,2013-02-11 12:22:00,
2013-02-11 06:32:00,32.0,25.0,-100.00,NW,305,18.0,30.0,74,0.00,,,-99.99,,2013-02-11 12:32:00,
2013-02-11 06:42:00,32.0,26.0,-100.00,NW,310,19.0,28.0,77,0.00,,,-99.99,,2013-02-11 12:42:00,
2013-02-11 06:52:00,32.0,24.0,-100.00,WNW,300,27.0,39.0,72,0.00,,,-99.99,,2013-02-11 12:52:00,
2013-02-11 07:02:00,32.0,24.0,-100.00,WNW,300,27.0,39.0,72,0.00,,,-99.99,,2013-02-11 13:02:00,
2013-02-11 07:11:00,31.0,24.0,-100.00,NW,320,17.0,40.0,73,0.00,,,-99.99,,2013-02-11 13:11:00,
2013-02-11 07:22:00,31.0,24.0,-100.00,NW,305,21.0,34.0,72,0.00,,,-99.99,,2013-02-11 13:22:00,
2013-02-11 07:32:00,31.0,24.0,-100.00,NW,315,23.0,31.0,74,0.00,,,-99.99,,2013-02-11 13:32:00,
2013-02-11 07:42:00,31.0,24.0,-100.00,NW,315,23.0,31.0,74,0.00,,,-99.99,,2013-02-11 13:42:00,
2013-02-11 07:52:00,31.0,24.0,-100.00,NW,320,17.0,30.0,74,0.00,,,-99.99,,2013-02-11 13:52:00,
2013-02-11 08:01:00,31.0,24.0,-100.00,NW,320,17.0,30.0,74,0.00,,,-99.99,,2013-02-11 14:01:00,
2013-02-11 08:11:00,31.0,24.0,-100.00,WNW,300,15.0,30.0,76,0.00,,,-99.99,,2013-02-11 14:11:00,
2013-02-11 08:21:00,31.0,24.0,-100.00,NW,315,21.0,27.0,75,0.00,,,-99.99,,2013-02-11 14:21:00,
2013-02-11 08:32:00,31.0,24.0,-100.00,NW,305,16.0,33.0,75,0.00,,,-99.99,,2013-02-11 14:32:00,
2013-02-11 08:42:00,31.0,25.0,-100.00,NW,305,17.0,32.0,76,0.00,,,-99.99,,2013-02-11 14:42:00,
2013-02-11 08:52:00,31.0,25.0,-100.00,WNW,300,19.0,29.0,76,0.00,,,-99.99,,2013-02-11 14:52:00,
2013-02-11 09:02:00,31.0,25.0,-100.00,WNW,300,19.0,29.0,76,0.00,,,-99.99,,2013-02-11 15:02:00,
2013-02-11 09:11:00,32.0,25.0,-100.00,NW,305,18.0,29.0,75,0.00,,,-99.99,,2013-02-11 15:11:00,
2013-02-11 09:22:00,32.0,25.0,-100.00,NW,305,12.0,27.0,74,0.00,,,-99.99,,2013-02-11 15:22:00,
2013-02-11 09:32:00,33.0,24.0,-100.00,WNW,300,17.0,31.0,70,0.00,,,-99.99,,2013-02-11 15:32:00,
2013-02-11 09:42:00,33.0,24.0,-100.00,WNW,300,17.0,31.0,70,0.00,,,-99.99,,2013-02-11 15:42:00,
2013-02-11 09:52:00,32.0,25.0,-100.00,WNW,295,23.0,37.0,73,0.00,,,-99.99,,2013-02-11 15:52:00,
2013-02-11 10:02:00,32.0,25.0,-100.00,WNW,295,23.0,37.0,73,0.00,,,-99.99,,2013-02-11 16:02:00,
2013-02-11 10:11:00,33.0,25.0,-100.00,NW,305,19.0,35.0,73,0.00,,,-99.99,,2013-02-11 16:11:00,
2013-02-11 10:22:00,33.0,25.0,-100.00,WNW,295,19.0,31.0,73,0.00,,,-99.99,,2013-02-11 16:22:00,
2013-02-11 10:32:00,33.0,26.0,-100.00,WNW,290,24.0,31.0,73,0.00,,,-99.99,,2013-02-11 16:32:00,
2013-02-11 10:42:00,33.0,26.0,-100.00,WNW,300,21.0,32.0,73,0.00,,,-99.99,,2013-02-11 16:42:00,
2013-02-11 10:52:00,34.0,26.0,-100.00,WNW,300,17.0,26.0,74,0.00,,,-99.99,,2013-02-11 16:52:00,
2013-02-11 11:01:00,34.0,26.0,-100.00,WNW,300,17.0,26.0,74,0.00,,,-99.99,,2013-02-11 17:01:00,
2013-02-11 11:11:00,33.0,26.0,-100.00,WNW,295,18.0,29.0,73,0.00,,,-99.99,,2013-02-11 17:11:00,
2013-02-11 11:21:00,34.0,26.0,-100.00,WNW,300,19.0,32.0,73,0.00,,,-99.99,,2013-02-11 17:21:00,
2013-02-11 11:32:00,34.0,26.0,-100.00,WNW,295,21.0,34.0,72,0.00,,,-99.99,,2013-02-11 17:32:00,
2013-02-11 11:42:00,35.0,27.0,-100.00,NW,320,19.0,29.0,71,0.00,,,-99.99,,2013-02-11 17:42:00,
2013-02-11 11:52:00,34.0,25.0,-100.00,WNW,295,22.0,34.0,69,0.00,,,-99.99,,2013-02-11 17:52:00,
2013-02-11 12:01:00,34.0,25.0,-100.00,WNW,295,22.0,34.0,69,0.00,,,-99.99,,2013-02-11 18:01:00,
2013-02-11 12:11:00,35.0,26.0,-100.00,NW,320,21.0,32.0,68,0.00,,,-99.99,,2013-02-11 18:11:00,
2013-02-11 12:21:00,36.0,27.0,-100.00,NW,315,17.0,30.0,68,0.00,,,-99.99,,2013-02-11 18:21:00,
2013-02-11 12:32:00,35.0,27.0,-100.00,NW,320,21.0,30.0,72,0.00,,,-99.99,,2013-02-11 18:32:00,
2013-02-11 12:42:00,35.0,26.0,-100.00,NW,305,24.0,31.0,69,0.00,,,-99.99,,2013-02-11 18:42:00,
2013-02-11 12:52:00,35.0,27.0,-100.00,WNW,295,19.0,28.0,74,0.00,,,-99.99,,2013-02-11 18:52:00,
2013-02-11 13:02:00,35.0,27.0,-100.00,WNW,295,19.0,28.0,74,0.00,,,-99.99,,2013-02-11 19:02:00,
2013-02-11 13:11:00,34.0,27.0,-100.00,WNW,295,21.0,32.0,75,0.00,,,-99.99,,2013-02-11 19:11:00,
2013-02-11 13:21:00,35.0,28.0,-100.00,NW,320,17.0,29.0,75,0.00,,,-99.99,,2013-02-11 19:21:00,
2013-02-11 13:32:00,35.0,27.0,-100.00,WNW,300,20.0,29.0,74,0.00,,,-99.99,,2013-02-11 19:32:00,
2013-02-11 13:41:00,35.0,27.0,-100.00,WNW,300,20.0,29.0,74,0.00,,,-99.99,,2013-02-11 19:41:00,
2013-02-11 13:51:00,35.0,28.0,-100.00,NW,320,21.0,30.0,75,0.00,,,-99.99,,2013-02-11 19:51:00,
2013-02-11 14:01:00,35.0,28.0,-100.00,NW,320,21.0,30.0,75,0.00,,,-99.99,,2013-02-11 20:01:00,
2013-02-11 14:11:00,35.0,28.0,-100.00,WNW,295,21.0,31.0,73,0.00,,,-99.99,,2013-02-11 20:11:00,
2013-02-11 14:21:00,36.0,28.0,-100.00,WNW,295,21.0,31.0,71,0.00,,,-99.99,,2013-02-11 20:21:00,
2013-02-11 14:32:00,35.0,27.0,-100.00,NW,315,22.0,30.0,74,0.00,,,-99.99,,2013-02-11 20:32:00,
2013-02-11 14:41:00,35.0,27.0,-100.00,NW,315,22.0,30.0,74,0.00,,,-99.99,,2013-02-11 20:41:00,
2013-02-11 14:52:00,36.0,28.0,-100.00,NW,305,17.0,29.0,72,0.00,,,-99.99,,2013-02-11 20:52:00,
2013-02-11 15:02:00,36.0,28.0,-100.00,NW,305,17.0,29.0,72,0.00,,,-99.99,,2013-02-11 21:02:00,
2013-02-11 15:11:00,36.0,28.0,-100.00,NW,325,12.0,24.0,73,0.00,,,-99.99,,2013-02-11 21:11:00,
2013-02-11 15:21:00,35.0,28.0,-100.00,WNW,295,19.0,25.0,73,0.00,,,-99.99,,2013-02-11 21:21:00,
2013-02-11 15:32:00,35.0,27.0,-100.00,NW,305,16.0,24.0,72,0.00,,,-99.99,,2013-02-11 21:32:00,
2013-02-11 15:42:00,35.0,27.0,-100.00,NW,305,16.0,24.0,72,0.00,,,-99.99,,2013-02-11 21:42:00,
2013-02-11 15:51:00,35.0,27.0,-100.00,WNW,300,18.0,25.0,72,0.00,,,-99.99,,2013-02-11 21:51:00,
2013-02-11 16:01:00,35.0,27.0,-100.00,WNW,300,18.0,25.0,72,0.00,,,-99.99,,2013-02-11 22:01:00,
2013-02-11 16:11:00,34.0,27.0,-100.00,NW,315,13.0,25.0,76,0.00,,,-99.99,,2013-02-11 22:11:00,
2013-02-11 16:21:00,34.0,27.0,-100.00,WNW,300,16.0,24.0,76,0.00,,,-99.99,,2013-02-11 22:21:00,
2013-02-11 16:32:00,35.0,28.0,-100.00,WNW,300,16.0,22.0,77,0.00,,,-99.99,,2013-02-11 22:32:00,
2013-02-11 16:42:00,35.0,28.0,-100.00,WNW,300,16.0,22.0,77,0.00,,,-99.99,,2013-02-11 22:42:00,
2013-02-11 16:52:00,34.0,27.0,-100.00,WNW,290,17.0,24.0,75,0.00,,,-99.99,,2013-02-11 22:52:00,
2013-02-11 17:02:00,34.0,27.0,-100.00,WNW,290,17.0,24.0,75,0.00,,,-99.99,,2013-02-11 23:02:00,
2013-02-11 17:11:00,34.0,28.0,-100.00,NW,325,11.0,21.0,78,0.00,,,-99.99,,2013-02-11 23:11:00,
2013-02-11 17:21:00,34.0,28.0,-100.00,WNW,300,14.0,19.0,79,0.00,,,-99.99,,2013-02-11 23:21:00,
2013-02-11 17:32:00,33.0,27.0,-100.00,WNW,300,16.0,21.0,78,0.00,,,-99.99,,2013-02-11 23:32:00,
2013-02-11 17:41:00,33.0,27.0,-100.00,WNW,300,16.0,21.0,78,0.00,,,-99.99,,2013-02-11 23:41:00,
2013-02-11 17:52:00,33.0,27.0,-100.00,NW,305,19.0,26.0,78,0.00,,,-99.99,,2013-02-11 23:52:00,
2013-02-11 18:01:00,33.0,27.0,-100.00,NW,305,19.0,26.0,78,0.00,,,-99.99,,2013-02-12 00:01:00,
2013-02-11 18:11:00,33.0,27.0,-100.00,WNW,300,14.0,22.0,78,0.00,,,-99.99,,2013-02-12 00:11:00,
2013-02-11 18:22:00,33.0,27.0,-100.00,WNW,295,13.0,20.0,79,0.00,,,-99.99,,2013-02-12 00:22:00,
2013-02-11 18:32:00,32.0,26.0,-100.00,WNW,295,15.0,23.0,77,0.00,,,-99.99,,2013-02-12 00:32:00,
2013-02-11 18:42:00,32.0,26.0,-100.00,WNW,295,15.0,23.0,77,0.00,,,-99.99,,2013-02-12 00:42:00,
2013-02-11 18:52:00,32.0,27.0,-100.00,WNW,300,14.0,21.0,78,0.00,,,-99.99,,2013-02-12 00:52:00,
2013-02-11 19:02:00,32.0,27.0,-100.00,WNW,300,14.0,21.0,78,0.00,,,-99.99,,2013-02-12 01:02:00,
2013-02-11 19:11:00,32.0,26.0,-100.00,NW,315,15.0,22.0,79,0.00,,,-99.99,,2013-02-12 01:11:00,
2013-02-11 19:21:00,32.0,27.0,-100.00,NNW,330,12.0,21.0,80,0.00,,,-99.99,,2013-02-12 01:21:00,
2013-02-11 19:32:00,32.0,26.0,-100.00,NNW,340,9.0,17.0,80,0.00,,,-99.99,,2013-02-12 01:32:00,
2013-02-11 19:42:00,32.0,26.0,-100.00,NW,325,10.0,16.0,80,0.00,,,-99.99,,2013-02-12 01:42:00,
2013-02-11 19:51:00,32.0,26.0,-100.00,NNW,335,11.0,18.0,80,0.00,,,-99.99,,2013-02-12 01:51:00,
2013-02-11 20:01:00,32.0,26.0,-100.00,NNW,335,11.0,18.0,80,0.00,,,-99.99,,2013-02-12 02:01:00,
2013-02-11 20:11:00,31.0,26.0,-100.00,NW,320,13.0,20.0,80,0.00,,,-99.99,,2013-02-12 02:11:00,
2013-02-11 20:21:00,31.0,26.0,-100.00,NW,325,11.0,20.0,81,0.00,,,-99.99,,2013-02-12 02:21:00,
2013-02-11 20:31:00,31.0,26.0,-100.00,NW,320,10.0,24.0,80,0.00,,,-99.99,,2013-02-12 02:31:00,
2013-02-11 20:41:00,31.0,26.0,-100.00,NW,325,11.0,18.0,81,0.00,,,-99.99,,2013-02-12 02:41:00,
2013-02-11 20:52:00,31.0,27.0,-100.00,NW,320,10.0,16.0,83,0.00,,,-99.99,,2013-02-12 02:52:00,
2013-02-11 21:02:00,31.0,27.0,-100.00,NW,320,10.0,16.0,83,0.00,,,-99.99,,2013-02-12 03:02:00,
2013-02-11 21:11:00,30.0,26.0,-100.00,NNW,330,8.0,17.0,83,0.00,,,-99.99,,2013-02-12 03:11:00,
2013-02-11 21:21:00,30.0,26.0,-100.00,NNW,330,9.0,16.0,83,0.00,,,-99.99,,2013-02-12 03:21:00,
2013-02-11 21:31:00,30.0,26.0,-100.00,NNW,330,11.0,16.0,84,0.00,,,-99.99,,2013-02-12 03:31:00,
2013-02-11 21:41:00,30.0,26.0,-100.00,NW,325,11.0,19.0,83,0.00,,,-99.99,,2013-02-12 03:41:00,
2013-02-11 21:51:00,30.0,26.0,-100.00,NNW,330,7.0,11.0,85,0.00,,,-99.99,,2013-02-12 03:51:00,
2013-02-11 22:01:00,30.0,26.0,-100.00,NNW,330,7.0,11.0,85,0.00,,,-99.99,,2013-02-12 04:01:00,
2013-02-11 22:11:00,30.0,26.0,-100.00,NNW,330,9.0,13.0,85,0.00,,,-99.99,,2013-02-12 04:11:00,
2013-02-11 22:21:00,30.0,26.0,-100.00,WNW,300,9.0,13.0,86,0.00,,,-99.99,,2013-02-12 04:21:00,
2013-02-11 22:31:00,30.0,26.0,-100.00,NW,320,6.0,13.0,86,0.00,,,-99.99,,2013-02-12 04:31:00,
2013-02-11 22:41:00,30.0,26.0,-100.00,NW,305,11.0,16.0,85,0.00,,,-99.99,,2013-02-12 04:41:00,
2013-02-11 22:51:00,30.0,26.0,-100.00,NW,325,7.0,14.0,85,0.00,,,-99.99,,2013-02-12 04:51:00,
2013-02-11 23:01:00,30.0,26.0,-100.00,NW,325,7.0,14.0,85,0.00,,,-99.99,,2013-02-12 05:01:00,
2013-02-11 23:11:00,30.0,26.0,-100.00,NNW,330,9.0,12.0,86,0.00,,,-99.99,,2013-02-12 05:11:00,
2013-02-11 23:21:00,30.0,26.0,-100.00,NW,325,6.0,11.0,87,0.00,,,-99.99,,2013-02-12 05:21:00,
2013-02-11 23:31:00,30.0,26.0,-100.00,NNW,330,9.0,15.0,87,0.00,,,-99.99,,2013-02-12 05:31:00,
2013-02-11 23:42:00,30.0,26.0,-100.00,NNW,335,9.0,12.0,87,0.00,,,-99.99,,2013-02-12 05:42:00,
2013-02-11 23:52:00,29.0,26.0,-100.00,NNW,335,7.0,12.0,88,0.00,,,-99.99,,2013-02-12 05:52:00,